NIMIQ 2

Last updated on Sun Jun 21 2026 00:03:03 GMT+0000 (Coordinated Universal Time)

1 27632U 02062A 26171.26762638 -.00000078 00000+0 00000+0 0 9991 2 27632 9.4541 56.8684 0005585 25.9598 172.8061 1.00272421 44218
UTC large
Height (km)
Speed (km/s)
/
Latitude / Longitude
Inclination (degrees)
Orbital Period (minutes)
Azimuth
Elevation
Range (km)
Doppler Factor

Next 0 passes for location: London (51.5072 / 0.1276)

No passes found over London.
NIMIQ 2